Temp_Advection
nan nan nan nan nan nan nan nan nan nan nan nan nan nan nan nan nan nan nan nan nan nan nan nan nan nan nan nan nan nan nan nan nan nan nan nan nan nan nan nan nan nan nan nan nan nan nan nan nan
nan 0 0 -0 -0 0 -0 -0 0 0 0 0 -0 -0 -0 -0 0 0 0 0 0 -0 -0 0 0 -0 -0 0 0 0 0 -0 -0 0 -0 0 0 0 -0 -0 0 0 0 -0 -0 -0 -0 -0 nan
nan 0 -0 -1 0 -0 -0 -0 0 0 0 -0 -0 -0 -0 -0 0 0 0 0 0 0 0 0 0 0 0 0 0 0 0 0 0 0 0 -0 0 0 0 -0 -0 0 -0 -0 -0 -0 -0 -0 nan
nan -0 -1 -0 -0 -0 -0 0 -0 0 0 -0 -1 -0 0 0 0 0 0 0 0 0 0 0 0 0 0 0 0 0 0 0 0 0 -0 -0 0 0 0 -0 0 0 -0 -0 -0 -0 -0 -0 nan
nan -0 -0 0 0 -0 -0 -0 -0 0 -0 -0 -0 -0 0 0 0 0 0 0 0 0 0 0 0 0 0 0 0 0 0 0 0 0 -0 -0 0 0 0 0 0 0 0 0 0 0 0 -0 nan
nan -0 -0 0 0 0 -0 0 0 -0 0 -0 -0 -0 0 0 0 -0 -0 0 0 0 0 0 0 0 0 0 0 0 0 0 0 0 0 0 0 0 0 0 0 0 0 -0 -0 0 0 0 nan
nan -0 -0 0 0 0 -0 -0 -0 0 0 0 -0 -0 0 0 -0 -0 -0 -0 -0 0 -0 -0 0 0 0 -0 0 0 0 -0 0 0 0 0 0 0 0 0 0 0 -0 -0 -0 -0 0 0 nan
nan -0 0 -0 0 0 -0 0 0 0 0 0 -0 -0 0 0 0 0 -0 -0 0 -0 -0 -0 -0 0 0 0 0 0 0 0 -0 -0 0 -0 -0 0 0 -0 0 0 0 -0 -0 0 0 0 nan
nan -0 0 0 0 0 0 0 0 0 0 0 -0 -0 -0 0 0 0 0 0 0 0 0 -0 -0 0 -0 -0 -0 -0 -0 0 0 0 -0 -0 -0 -0 -0 0 0 0 0 0 -0 -0 0 0 nan
nan 0 -0 -0 0 0 0 0 -0 0 -0 0 -0 0 0 0 0 -0 -0 -0 -0 -0 0 0 0 -0 -0 0 0 -0 -0 -0 -0 0 0 -0 -0 -0 -0 0 0 0 0 0 0 -0 -0 0 nan
nan -0 0 0 0 0 -0 -0 -0 -0 -0 -0 0 0 0 0 0 -0 -0 -0 -0 -0 -0 -0 0 0 0 -0 0 0 -0 0 0 0 0 0 -0 -0 -0 -0 0 0 0 0 0 -0 -0 -0 nan
nan 0 0 -0 0 -0 -0 -0 -0 -0 -0 -0 0 0 0 -0 -0 -0 -0 -0 -0 -0 -0 -0 -0 -0 -0 0 0 -0 -0 0 0 0 -0 0 -0 -0 -0 0 0 0 0 0 0 0 0 -0 nan
nan 0 0 0 -0 -0 -0 -0 -0 -1 -1 -0 -0 -0 0 -0 -0 -0 -0 -0 -0 -0 -0 -0 -0 -0 -0 -0 -0 0 1 0 -0 0 0 0 -0 -0 -0 0 0 -0 0 0 0 0 0 0 nan
nan 0 0 0 -0 -0 -0 -0 -0 -0 -0 -0 -0 -0 -0 -0 -0 -0 -0 -0 0 -0 0 0 0 -0 -0 -0 -0 -0 -0 0 1 0 0 0 -0 -0 0 -0 0 -0 0 0 0 0 0 0 nan
nan -0 -0 -0 -0 -0 -0 0 -0 -0 -0 -0 -0 -0 -0 0 -0 -0 -0 -0 -0 -0 -0 0 0 0 -0 -0 -0 -0 -0 -0 -0 0 1 0 -0 -0 -0 0 -0 -0 0 0 0 0 0 0 nan
nan -0 0 0 -0 -0 0 -0 -0 -0 0 -0 -0 -0 -0 0 0 0 -0 -0 -0 -0 -0 0 0 0 0 -0 -0 -0 -1 -1 -0 -0 0 1 0 -0 -0 -0 -0 -0 0 -0 0 0 0 0 nan
nan 0 -0 0 0 -0 -0 -0 -0 0 -0 -0 -0 -0 0 0 0 0 -0 -0 -0 -0 -0 -0 -0 0 0 0 0 0 -0 -1 -1 -1 0 0 0 0 -0 -1 -1 -0 0 0 -0 0 0 0 nan
nan -0 0 -0 0 -0 0 -0 -1 -1 -0 -0 0 0 0 0 -0 -0 -0 -0 -0 -0 -0 -0 -0 -0 0 -0 -1 -0 0 0 -0 -0 -0 -0 0 -0 -0 0 -0 0 0 -0 -0 0 0 -0 nan
nan 0 0 0 -0 0 0 -0 -1 -1 -0 1 1 0 -0 -0 -0 -0 -0 -0 -1 -1 -1 -1 -1 -0 -0 -0 -1 -1 -1 -0 0 0 -0 -0 -0 -1 -0 -0 -0 1 0 -0 -0 0 -0 -0 nan
nan -0 -0 -0 0 0 0 -0 -0 -0 -0 0 0 -0 -0 -0 -0 -0 -0 -0 -0 -1 -1 -1 -1 -1 -1 -1 -1 -1 -1 -0 0 -0 -0 -0 -0 -0 -0 0 0 -1 -0 0 0 -0 -0 -1 nan
nan 0 0 0 -0 0 0 -0 -0 -0 -0 0 0 -0 -0 -0 -0 -0 -0 -0 -0 -0 -0 -0 -0 -0 -1 -1 -1 -1 -0 -0 -1 -1 -0 -0 -0 -0 -0 -0 -0 -0 -0 -0 0 0 -0 -0 nan
nan 0 0 0 -0 -0 -0 -0 -0 0 0 -0 -0 -0 -0 -0 -0 -0 -0 -0 -0 -0 -0 -0 -0 -0 -0 -0 -0 -0 -0 -1 -1 -0 -0 -0 -0 -0 -0 -0 -1 -1 -0 0 -0 -0 -0 0 nan
nan 0 0 0 -0 -0 -0 -0 -1 -0 0 0 -1 -1 -0 0 0 0 0 -0 -0 -0 -0 -0 -0 -0 0 -0 -0 -0 -0 -0 -0 -0 -0 -0 -0 -0 -0 -0 -0 -0 -1 -0 0 -0 -0 -0 nan
nan -0 -1 -0 -0 0 -0 -0 -0 -0 -0 0 -0 -1 -0 0 0 0 0 0 0 0 -0 0 0 -0 -0 -0 0 -0 -0 -0 -0 -0 -0 -0 -0 -0 -0 -0 -0 -0 -0 -1 -0 -0 -0 -0 nan
nan -0 -0 -0 -0 -0 0 0 -1 -0 0 -0 -0 -0 0 0 0 0 0 0 0 -0 -0 -0 -0 -0 -0 -0 -0 -0 -0 -0 -0 -0 -0 -0 -0 -0 -0 -0 -0 -0 -0 -0 -0 -0 -0 0 nan
nan -0 -0 -0 0 -0 -0 -0 -0 -0 -0 -0 -0 -0 -0 0 0 0 0 0 -0 -0 -0 -0 -0 -0 -0 -0 -0 -0 -0 -0 -0 -0 -0 -0 -0 -0 0 -0 -0 -0 -0 -0 -0 -0 -0 -0 nan
nan -0 -0 -0 0 0 0 -1 -1 0 -0 -0 -0 -0 -1 -0 0 0 0 1 0 0 0 0 -0 -0 -0 -0 -0 -0 -1 -1 -0 -0 -0 -0 -0 -0 -0 -0 -0 -0 -0 -0 -0 -0 -0 0 nan
nan -0 -0 -0 -0 0 0 -0 -0 -0 -0 0 -0 -2 -1 -0 0 0 1 1 0 0 0 0 0 -0 -0 0 -0 -0 0 -0 -1 -0 -0 -0 -0 -0 -0 -0 -0 -0 -0 0 -0 -0 -0 -0 nan
nan 0 -0 -0 -0 -0 0 0 -0 -1 -0 -0 -1 -1 -0 -0 0 1 1 1 0 0 0 0 0 0 -0 -0 -0 -0 -0 0 -0 -0 0 -0 -0 -0 -0 -0 0 -0 -0 -0 -0 -0 0 0 nan
nan nan nan nan nan nan nan nan nan nan nan nan nan nan nan nan nan nan nan nan nan nan nan nan nan nan nan nan nan nan nan nan nan nan nan nan nan nan nan nan nan nan nan nan nan nan nan nan nan
Wind_Speed
15 17 16 9 4 5 2 4 2 1 3 7 11 9 10 8 3 3 6 5 4 4 4 6 8 10 9 8 7 6 4 3 2 2 3 3 4 6 8 8 9 8 8 5 3 5 6 7 7
18 16 11 4 5 3 4 3 3 1 5 9 9 6 7 3 5 8 5 5 5 5 6 6 6 10 11 9 8 7 6 5 3 1 1 1 2 4 7 9 9 8 7 4 2 2 5 7 8
15 15 4 4 4 4 4 2 3 2 5 4 5 9 4 3 7 6 4 7 5 5 6 5 5 9 10 9 8 8 7 6 5 4 3 2 2 3 5 9 9 7 7 5 3 3 7 9 11
11 7 5 4 4 3 2 4 3 1 4 7 10 6 5 4 4 4 7 6 5 4 6 7 6 7 9 10 9 9 8 7 6 5 5 3 3 4 5 8 10 9 7 6 4 6 9 11 12
10 4 4 3 2 1 1 2 2 1 3 7 2 3 4 7 7 5 4 5 5 3 4 7 6 6 8 9 10 10 9 8 7 7 6 5 4 5 6 8 7 5 4 5 5 7 9 10 12
4 3 4 4 3 2 1 5 2 3 4 4 7 5 3 7 5 3 3 5 4 4 3 8 8 8 8 9 10 10 10 10 9 9 8 7 6 6 7 8 10 8 6 5 6 8 8 10 11
5 4 5 6 6 2 1 3 3 3 3 6 4 4 5 6 6 4 4 3 2 2 5 7 8 9 9 11 12 11 11 12 12 11 11 10 9 9 9 10 11 13 10 7 7 8 9 10 11
3 4 4 1 5 4 2 2 4 4 2 5 3 4 3 6 5 3 2 1 1 4 5 8 9 10 10 10 12 13 13 13 14 14 13 12 12 12 12 12 13 15 14 12 10 10 11 11 12
3 4 2 5 6 4 1 2 2 2 2 3 4 5 6 6 6 4 4 4 5 5 7 10 10 13 13 13 11 14 16 16 16 16 16 16 16 15 15 15 15 15 16 16 13 12 13 13 13
5 4 5 0 1 3 3 3 1 1 2 1 5 7 6 4 4 6 7 9 11 11 11 13 14 15 16 17 17 17 16 17 19 19 18 19 18 18 17 17 17 17 17 17 19 16 15 17 16
3 3 3 2 3 3 2 2 4 1 3 6 6 7 2 4 6 8 11 14 16 19 18 16 16 18 19 19 20 21 21 20 19 21 21 20 21 22 21 21 21 21 21 21 22 22 19 19 19
6 4 3 3 3 3 3 3 5 4 1 2 7 6 7 8 11 14 15 14 12 11 11 11 12 14 18 22 23 24 26 26 26 24 25 24 23 26 25 24 23 24 23 23 22 24 22 20 20
4 2 5 5 4 4 2 2 4 11 12 13 12 13 13 11 9 6 8 9 10 12 12 11 14 15 16 18 21 26 27 28 29 30 29 27 27 25 26 27 26 27 27 26 23 23 24 24 22
4 7 5 4 3 3 3 3 4 1 4 4 1 3 4 7 10 12 14 16 16 17 16 15 16 17 19 20 21 22 24 28 30 30 32 32 30 28 26 26 27 27 28 27 25 21 21 23 24
8 4 2 2 2 2 5 5 6 3 7 1 3 5 7 12 14 15 15 13 14 14 15 17 19 20 22 25 27 28 26 26 28 32 32 32 33 33 31 30 30 30 30 27 29 27 24 24 25
4 5 2 2 1 2 3 8 1 2 2 2 12 12 13 12 12 11 10 12 14 17 20 22 25 26 28 30 31 32 32 32 31 30 33 33 35 34 35 35 33 34 35 32 32 30 29 26 27
6 2 1 4 1 2 2 6 3 5 6 15 20 15 11 11 11 11 13 16 19 23 27 30 32 33 34 34 33 32 33 35 35 33 32 34 36 37 35 36 35 33 33 34 32 32 31 29 27
3 2 1 0 3 1 3 12 14 26 18 24 21 13 9 8 9 12 15 19 23 26 30 34 37 39 39 39 38 38 38 37 35 34 33 33 34 38 39 36 36 33 35 34 35 34 33 32 31
3 3 2 1 1 3 5 10 16 22 21 23 12 10 7 7 10 13 18 22 25 27 29 30 32 33 36 40 43 43 41 37 36 32 31 31 30 30 40 38 38 37 36 36 35 34 35 35 32
4 2 2 3 2 2 4 14 17 6 5 8 11 8 7 8 12 15 18 20 21 23 22 21 22 23 24 29 33 38 40 40 36 32 29 28 28 28 31 40 37 38 35 34 34 36 36 35 34
4 3 2 1 5 0 7 7 5 2 3 5 8 6 6 9 13 16 18 21 24 21 19 20 21 21 24 25 27 29 33 35 32 29 29 26 25 25 26 30 36 38 37 36 35 34 37 38 34
2 1 1 1 4 3 4 5 7 1 5 6 10 8 7 8 10 14 19 22 25 21 17 19 20 20 21 21 21 20 20 21 21 22 22 21 23 25 24 22 25 32 37 35 34 34 37 35 36
2 1 1 1 2 4 1 3 8 3 5 8 16 12 9 7 9 13 18 21 21 21 19 19 18 18 19 18 17 15 13 15 16 18 19 18 20 23 22 22 21 19 24 33 35 32 31 32 34
1 2 5 4 3 3 2 4 6 3 4 2 5 14 9 7 9 11 15 19 19 21 20 18 18 17 19 16 14 14 15 16 17 17 17 18 19 20 19 21 21 23 23 24 31 31 28 28 30
3 4 3 5 4 5 1 2 10 6 6 6 7 10 8 8 11 12 14 17 17 21 21 19 18 16 16 17 14 13 13 15 17 17 19 20 20 18 18 19 20 21 22 22 24 29 31 29 28
1 4 4 5 2 5 1 6 6 5 6 11 11 10 11 12 13 13 16 16 16 19 22 22 21 17 15 17 15 14 13 12 13 15 15 15 16 17 15 15 19 20 19 19 19 24 28 26 23
1 2 3 4 2 2 3 7 9 5 7 10 14 13 17 14 14 15 17 15 14 15 19 21 19 18 15 15 16 17 15 13 14 14 15 15 15 15 14 17 18 17 15 14 17 19 19 19 18
1 3 2 1 1 4 5 6 6 4 5 6 10 19 19 15 16 17 17 16 14 15 15 17 19 20 18 16 15 14 17 16 13 14 15 15 16 16 14 14 15 15 14 12 15 16 15 15 17
2 1 2 2 3 3 5 6 7 8 7 7 11 16 17 17 17 17 18 16 15 14 15 15 15 17 16 17 16 15 16 15 14 12 14 14 14 14 12 10 12 12 12 13 14 14 15 18 18
4 5 5 3 4 3 2 8 4 7 6 9 10 10 13 18 21 19 18 17 16 14 15 14 14 13 14 15 15 15 14 14 13 12 9 10 10 10 8 9 11 8 9 11 14 15 17 19 21
Wind_Direction
153 147 143 135 73 64 244 251 284 63 51 60 84 105 110 56 67 173 126 147 164 214 212 219 203 206 197 194 195 196 186 168 148 79 77 122 144 152 154 153 147 142 158 150 138 134 124 144 150
144 146 137 108 94 101 257 272 143 211 122 113 74 91 48 77 85 129 106 126 152 189 198 217 217 211 207 201 201 201 198 187 184 250 47 110 162 169 169 165 153 170 185 207 233 174 174 163 162
146 150 123 99 115 164 187 213 165 73 114 182 107 70 74 77 111 128 126 127 130 170 194 221 239 211 215 211 204 203 206 203 201 203 237 269 212 204 189 187 178 183 210 224 223 183 171 168 170
143 131 71 89 160 222 208 160 198 169 85 72 111 65 79 104 116 121 139 131 122 160 191 224 227 207 219 219 218 216 214 217 217 216 223 245 231 223 216 195 199 207 225 217 200 162 165 170 175
144 123 71 94 149 92 37 356 324 75 79 51 128 121 95 113 110 90 144 145 124 143 214 230 240 225 215 224 227 226 229 231 227 230 236 242 239 231 219 205 201 212 221 215 203 177 172 180 187
106 106 80 156 171 86 23 17 97 67 66 48 78 89 131 131 112 98 88 153 136 124 205 231 241 250 238 229 230 234 239 241 241 243 251 249 244 236 228 227 230 238 245 243 217 195 188 192 198
114 88 156 142 150 118 327 21 50 76 58 40 100 95 146 143 124 108 87 126 208 215 238 245 249 249 257 245 237 237 241 246 251 251 254 251 249 243 238 239 240 243 246 250 238 219 209 208 208
96 90 102 186 175 173 353 88 85 77 74 92 104 156 162 156 146 133 145 199 261 238 231 257 257 255 263 258 242 243 246 250 253 255 254 253 250 251 250 249 247 245 248 249 246 235 227 225 222
79 61 129 167 160 152 64 115 68 62 141 87 101 117 127 165 191 226 249 264 275 275 261 250 245 254 255 257 262 255 253 252 251 252 254 256 255 254 254 252 252 250 247 244 247 244 236 230 228
70 85 196 0 112 123 87 95 53 97 358 173 122 129 151 195 233 260 278 288 293 292 284 271 256 247 254 253 252 255 260 260 257 255 255 257 258 257 255 252 250 249 248 246 243 247 243 237 233
79 133 152 58 83 90 70 57 358 59 229 223 208 178 210 229 270 287 292 299 300 299 297 286 270 258 255 250 255 255 252 252 257 261 256 258 259 256 253 250 248 247 245 243 240 241 244 243 239
91 64 96 129 66 55 49 346 327 257 215 48 212 249 290 292 295 299 304 304 313 313 319 309 298 279 263 257 256 251 255 256 252 255 256 257 259 256 252 250 249 248 246 247 245 241 246 250 248
82 112 83 97 55 55 359 318 287 274 286 262 256 271 290 304 320 319 307 305 301 300 299 300 295 293 285 274 262 257 256 252 253 255 253 253 256 257 255 253 252 249 246 245 245 245 247 251 252
98 101 88 65 43 40 349 275 333 234 51 38 20 304 320 319 307 299 294 292 291 290 285 280 282 286 287 286 280 272 263 258 254 254 252 251 255 254 253 251 252 250 243 243 241 247 252 255 255
117 69 46 57 17 14 333 279 228 269 294 14 13 342 305 301 300 301 302 298 292 288 289 289 286 284 285 285 285 281 275 267 261 253 251 252 251 252 253 254 252 251 245 246 246 245 249 254 256
66 51 92 7 103 1 24 269 192 45 170 308 332 311 295 291 286 283 285 288 288 286 285 285 284 285 286 285 282 279 278 273 266 262 255 249 251 251 254 257 255 254 250 251 251 247 248 255 257
15 149 209 342 196 53 45 277 290 196 293 295 303 294 280 265 261 268 281 288 288 288 288 286 285 284 284 282 280 280 281 276 271 264 258 254 248 253 255 253 256 253 251 252 254 250 250 256 258
193 126 71 23 351 48 290 274 282 283 281 278 281 266 240 247 262 277 287 295 297 295 291 288 285 284 283 280 278 277 280 277 273 269 262 255 253 246 253 254 254 251 257 258 254 252 251 258 262
111 88 114 117 106 306 243 267 274 283 281 272 237 216 234 261 282 303 307 309 310 306 299 294 290 286 282 280 280 278 274 272 271 268 261 260 259 259 245 255 254 257 254 258 258 255 256 259 257
52 98 5 292 216 321 304 280 275 297 294 269 192 207 244 285 302 308 318 323 325 324 320 315 312 310 300 292 286 282 279 271 271 272 265 259 257 257 256 251 255 256 257 256 256 256 259 260 259
39 90 43 258 315 273 317 295 309 28 98 141 184 223 274 297 312 322 330 331 332 328 328 328 328 320 319 319 307 290 276 274 268 273 278 265 263 265 265 256 256 255 256 258 258 253 259 261 260
142 271 36 353 40 265 24 277 295 211 230 230 225 243 271 300 315 327 334 334 336 331 326 320 335 330 329 326 318 315 300 286 282 285 283 278 265 270 262 263 265 262 256 254 257 259 257 259 259
170 186 248 170 66 40 355 63 268 309 262 240 232 242 266 292 312 325 336 336 338 336 321 318 323 336 330 326 325 312 303 298 290 283 282 274 264 269 266 262 266 274 265 255 255 258 258 256 254
1 83 40 50 73 12 247 129 280 218 215 284 233 236 257 270 295 311 328 335 342 349 343 329 321 323 334 319 321 311 298 296 291 284 286 280 276 267 266 265 265 268 273 264 255 257 259 261 256
71 58 340 353 7 226 187 50 248 261 242 220 228 253 242 263 285 299 318 334 355 1 358 349 337 326 330 333 309 316 303 292 294 294 289 278 274 276 269 268 266 265 259 266 257 254 261 261 262
8 131 149 221 268 281 1 238 253 218 281 242 246 260 251 266 280 296 307 315 340 356 3 5 357 347 342 343 328 312 309 312 298 296 298 291 284 280 270 272 274 274 265 260 260 255 258 261 260
327 52 149 107 20 290 251 286 290 239 262 249 253 255 256 262 275 287 293 302 323 345 353 3 6 357 342 340 344 336 322 308 300 296 294 295 293 288 283 281 283 283 267 261 258 260 261 257 254
127 156 84 27 276 284 284 274 240 286 258 236 244 247 254 256 267 277 287 291 300 321 336 353 3 1 355 336 327 328 333 326 310 300 292 292 292 288 285 287 288 280 270 271 282 265 256 261 260
123 190 99 126 181 229 299 266 217 214 209 224 245 249 252 255 263 273 279 283 287 304 316 331 344 357 4 2 358 343 332 344 335 317 310 298 288 277 276 275 294 292 259 257 259 257 257 256 256
183 188 155 138 240 231 271 272 249 232 230 233 253 269 266 263 263 266 272 279 282 294 305 319 315 331 353 358 2 5 356 344 331 327 329 317 297 292 282 285 279 272 275 274 280 276 266 260 258
Height
1506 1508 1511 1514 1528 1534 1536 1526 1519 1517 1517 1517 1514 1516 1521 1525 1527 1537 1531 1531 1533 1534 1534 1535 1536 1537 1538 1538 1539 1540 1540 1541 1541 1541 1541 1541 1540 1541 1541 1541 1541 1542 1541 1541 1541 1542 1542 1542 1543
1507 1510 1513 1514 1535 1543 1537 1523 1520 1518 1518 1518 1517 1520 1522 1529 1528 1530 1531 1532 1533 1534 1535 1536 1536 1536 1538 1539 1539 1540 1541 1542 1542 1542 1542 1542 1542 1541 1542 1542 1542 1543 1542 1542 1542 1542 1542 1543 1543
1508 1510 1513 1520 1538 1538 1532 1521 1520 1518 1518 1518 1520 1522 1525 1529 1529 1530 1532 1533 1533 1534 1535 1536 1536 1537 1538 1539 1539 1540 1541 1541 1542 1542 1542 1542 1542 1542 1542 1542 1543 1543 1543 1543 1542 1542 1542 1543 1543
1509 1513 1517 1526 1528 1523 1521 1519 1519 1518 1519 1519 1521 1525 1528 1529 1530 1531 1532 1533 1534 1534 1536 1537 1536 1536 1538 1539 1539 1540 1540 1541 1542 1542 1542 1541 1542 1542 1542 1543 1543 1543 1543 1543 1542 1542 1542 1543 1543
1509 1511 1525 1529 1523 1521 1520 1519 1519 1519 1520 1521 1521 1527 1529 1530 1531 1531 1532 1533 1535 1536 1536 1536 1537 1537 1537 1538 1539 1540 1540 1541 1541 1542 1542 1542 1542 1542 1542 1543 1544 1544 1543 1543 1543 1543 1543 1543 1544
1509 1511 1529 1533 1525 1522 1521 1520 1519 1521 1521 1522 1524 1527 1530 1531 1531 1532 1533 1534 1535 1536 1536 1536 1537 1537 1537 1537 1538 1539 1540 1541 1541 1541 1542 1542 1542 1542 1542 1542 1543 1543 1543 1543 1543 1543 1544 1544 1544
1508 1516 1526 1528 1527 1523 1522 1520 1521 1523 1523 1524 1525 1528 1531 1531 1532 1533 1533 1534 1535 1536 1536 1537 1537 1536 1537 1536 1537 1538 1538 1539 1540 1540 1540 1541 1541 1542 1542 1542 1542 1542 1542 1543 1543 1543 1544 1544 1544
1509 1513 1523 1526 1527 1524 1522 1522 1523 1524 1525 1526 1526 1528 1530 1531 1532 1533 1533 1534 1534 1535 1536 1536 1536 1536 1536 1536 1535 1536 1537 1538 1538 1538 1539 1539 1540 1540 1540 1541 1540 1540 1541 1542 1542 1542 1543 1543 1544
1511 1523 1530 1525 1525 1524 1522 1523 1524 1525 1525 1526 1527 1528 1530 1530 1532 1533 1533 1533 1534 1534 1534 1535 1535 1535 1535 1534 1535 1535 1535 1535 1536 1536 1537 1537 1538 1538 1538 1539 1539 1538 1539 1539 1540 1540 1541 1541 1542
1513 1526 1525 1523 1523 1523 1523 1523 1525 1526 1526 1526 1527 1528 1530 1531 1531 1532 1532 1532 1532 1532 1533 1532 1532 1532 1533 1533 1533 1533 1533 1533 1533 1533 1534 1534 1535 1535 1536 1536 1536 1536 1536 1536 1537 1538 1538 1539 1540
1516 1523 1523 1525 1524 1523 1524 1524 1525 1526 1527 1526 1526 1528 1529 1530 1530 1531 1531 1530 1530 1529 1529 1529 1529 1529 1529 1529 1530 1529 1530 1530 1530 1530 1530 1531 1531 1531 1532 1532 1532 1532 1533 1532 1532 1533 1534 1535 1536
1521 1523 1523 1525 1525 1525 1526 1527 1526 1526 1526 1526 1527 1527 1528 1529 1529 1529 1529 1528 1527 1526 1526 1525 1525 1525 1525 1525 1525 1525 1526 1526 1526 1527 1527 1527 1527 1527 1527 1527 1528 1528 1528 1528 1529 1529 1531 1532 1533
1521 1524 1525 1526 1527 1528 1528 1528 1528 1524 1524 1524 1526 1526 1526 1527 1527 1527 1526 1526 1524 1523 1523 1523 1521 1521 1521 1520 1520 1520 1520 1520 1521 1521 1521 1522 1522 1522 1522 1523 1523 1523 1524 1524 1524 1525 1527 1527 1528
1523 1524 1527 1529 1529 1529 1529 1528 1527 1524 1522 1522 1523 1524 1524 1524 1523 1524 1523 1522 1521 1520 1520 1519 1518 1517 1516 1515 1515 1514 1514 1514 1514 1515 1515 1516 1516 1517 1517 1517 1518 1518 1518 1519 1520 1521 1522 1523 1524
1524 1528 1528 1530 1531 1531 1530 1526 1527 1522 1522 1522 1523 1523 1523 1522 1521 1520 1520 1519 1518 1517 1516 1515 1514 1513 1511 1510 1509 1508 1508 1507 1507 1507 1509 1509 1510 1511 1511 1511 1512 1513 1513 1515 1516 1516 1517 1518 1518
1528 1533 1535 1532 1532 1532 1531 1530 1522 1521 1522 1521 1522 1522 1521 1520 1519 1517 1517 1516 1515 1514 1513 1511 1509 1508 1506 1504 1503 1501 1500 1500 1500 1500 1501 1503 1503 1504 1504 1504 1505 1507 1508 1509 1509 1510 1511 1512 1513
1537 1543 1535 1533 1532 1533 1534 1529 1520 1522 1522 1521 1520 1519 1518 1518 1517 1516 1515 1513 1512 1510 1508 1505 1503 1502 1500 1498 1496 1494 1493 1492 1492 1493 1493 1494 1496 1497 1497 1497 1499 1501 1501 1502 1504 1504 1505 1506 1507
1537 1536 1535 1535 1535 1534 1536 1531 1522 1519 1521 1517 1517 1517 1516 1516 1516 1515 1514 1512 1510 1507 1504 1500 1497 1494 1492 1490 1488 1486 1484 1484 1484 1484 1485 1487 1487 1490 1491 1491 1492 1494 1495 1495 1497 1498 1500 1500 1501
1534 1535 1535 1536 1535 1537 1536 1532 1520 1515 1515 1512 1513 1513 1514 1515 1514 1512 1510 1508 1504 1502 1497 1493 1489 1487 1484 1481 1478 1476 1474 1475 1475 1475 1476 1479 1480 1481 1483 1484 1486 1487 1488 1489 1491 1493 1494 1495 1496
1536 1537 1540 1538 1536 1538 1534 1528 1514 1513 1510 1508 1510 1512 1511 1511 1511 1509 1506 1504 1500 1495 1491 1488 1485 1482 1479 1475 1471 1468 1465 1465 1467 1467 1469 1471 1473 1474 1475 1476 1479 1481 1482 1483 1484 1487 1488 1488 1489
1544 1543 1542 1543 1539 1537 1537 1526 1514 1513 1511 1509 1509 1509 1509 1508 1507 1505 1502 1499 1495 1491 1488 1484 1481 1478 1474 1470 1465 1460 1457 1457 1459 1462 1463 1465 1467 1468 1468 1469 1471 1473 1475 1476 1477 1480 1482 1482 1483
1541 1542 1541 1541 1547 1553 1541 1553 1520 1511 1511 1509 1508 1507 1507 1506 1505 1502 1499 1495 1491 1487 1484 1480 1477 1473 1470 1466 1461 1457 1454 1453 1457 1458 1458 1459 1461 1462 1462 1463 1464 1465 1467 1469 1471 1473 1475 1477 1477
1540 1541 1541 1541 1546 1561 1546 1568 1521 1512 1508 1506 1504 1504 1504 1504 1502 1500 1498 1494 1490 1485 1481 1477 1474 1470 1467 1463 1459 1456 1454 1454 1454 1454 1454 1455 1456 1456 1457 1458 1458 1458 1459 1461 1465 1466 1468 1469 1471
1539 1541 1544 1547 1553 1576 1544 1555 1526 1520 1503 1500 1499 1501 1501 1501 1500 1498 1496 1493 1488 1483 1478 1473 1470 1467 1463 1460 1458 1456 1453 1452 1452 1452 1451 1451 1451 1451 1452 1453 1453 1453 1453 1454 1458 1461 1463 1464 1465
1540 1549 1574 1572 1580 1562 1544 1556 1517 1502 1500 1498 1497 1497 1497 1498 1498 1496 1493 1490 1486 1481 1476 1471 1467 1463 1460 1458 1456 1454 1452 1450 1449 1448 1447 1447 1446 1446 1447 1448 1448 1447 1448 1449 1451 1454 1456 1459 1460
1540 1547 1574 1567 1578 1571 1545 1543 1512 1496 1494 1494 1495 1495 1495 1495 1494 1492 1490 1488 1483 1479 1475 1470 1466 1462 1459 1457 1454 1452 1450 1447 1446 1446 1445 1444 1443 1443 1444 1443 1444 1444 1443 1444 1446 1448 1450 1452 1454
1540 1553 1548 1558 1573 1556 1553 1528 1500 1494 1493 1493 1492 1493 1491 1491 1490 1489 1487 1484 1481 1478 1475 1470 1466 1462 1458 1456 1453 1450 1447 1445 1444 1443 1442 1442 1441 1440 1440 1441 1441 1441 1440 1440 1441 1444 1445 1447 1449
1542 1546 1553 1560 1566 1559 1547 1541 1513 1501 1489 1489 1488 1486 1486 1487 1486 1485 1483 1481 1479 1476 1473 1470 1465 1462 1458 1454 1451 1448 1446 1443 1441 1440 1439 1439 1438 1438 1438 1438 1438 1437 1437 1438 1439 1440 1441 1443 1445
1547 1548 1550 1555 1555 1547 1544 1521 1493 1488 1484 1484 1482 1482 1482 1482 1482 1480 1479 1477 1476 1474 1471 1468 1464 1462 1459 1455 1450 1447 1444 1441 1439 1438 1437 1436 1435 1435 1435 1436 1436 1435 1434 1435 1436 1437 1438 1440 1440
1538 1540 1545 1554 1556 1550 1537 1511 1480 1481 1481 1480 1479 1479 1479 1478 1477 1476 1475 1474 1472 1471 1468 1466 1463 1461 1458 1454 1451 1447 1444 1441 1439 1437 1435 1434 1433 1433 1433 1433 1433 1433 1433 1434 1434 1434 1434 1434 1435